Frederick, MD

12:22 PM EST on February 10, 2016 (GMT -0500)
Frederick Municipal

Weather History for KFDK - April, 2013

Change the Weather History Date:

Monday, April 1, 2013

  Actual Average (KHGR) Record (KHGR)
Temperature  
Mean Temperature 48 °F 48 °F  
Max Temperature 60 °F 57 °F - ()
Min Temperature 33 °F 38 °F - ()
Degree Days  
Heating Degree Days 18 18  
Month to date heating degree days 18  
Since 1 July heating degree days 4650  
Cooling Degree Days 0 0  
Month to date cooling degree days 0  
Year to date cooling degree days 1  
Moisture  
Dew Point 34 °F    
Average Humidity 76    
Maximum Humidity 100    
Minimum Humidity 43    
Precipitation  
Precipitation 0.00 in 0.14 in - ()
Month to date precipitation 0.14  
Year to date precipitation 8.75  
Sea Level Pressure  
Sea Level Pressure 29.85 in    
Wind  
Wind Speed 5 mph (WNW)    
Max Wind Speed 22 mph    
Max Gust Speed 31 mph    
Visibility 8 miles    
Events Fog    
T = Trace of Precipitation, MM = Missing Value Source: NWS Daily Summary

Daily Weather History Graph

Daily Weather History Graph

Search for Another Location

Airport or City:

Trip Planner

Search our weather history database for the weather conditions in past years. The results will help you decide how hot, cold, wet, or windy it might be!

Date:

Astronomy

Apr. 01, 2013 Rise Set
Actual Time 6:53 AM EDT 7:33 PM EDT
Civil Twilight 6:26 AM EDT 8:00 PM EDT
Nautical Twilight 5:54 AM EDT 8:32 PM EDT
Astronomical Twilight 5:21 AM EDT 9:05 PM EDT
Moon 12:38 AM EDT (4/1) 10:39 AM EDT (4/1)
Length of Visible Light 13h 34m
Length of Day
12h 40m
Waning Gibbous, 67% of the Moon is Illuminated
Apr 1
Waning Gibbous
Apr 3
Last Quarter
Apr 10
New
Apr 18
First Quarter
Apr 25
Full

Hourly Weather History & Observations

Time (EDT) Temp. Windchill Dew Point Humidity Pressure Visibility Wind Dir Wind Speed Gust Speed Precip Events Conditions
12:15 AM 42.8 °F 40.1 °F 42.8 °F 100% 29.79 in 7.0 mi South 4.6 mph - N/A   Overcast
12:35 AM 42.8 °F - 42.8 °F 100% 29.79 in 4.0 mi Calm Calm - N/A   Overcast
12:55 AM 41.0 °F - 41.0 °F 100% 29.79 in 1.0 mi Calm Calm - N/A   Overcast
1:15 AM 41.0 °F - 41.0 °F 100% 29.79 in 1.2 mi Calm Calm - N/A   Overcast
1:35 AM 37.4 °F - 37.4 °F 100% 29.80 in 0.2 mi Calm Calm - N/A Fog Fog
1:55 AM 37.4 °F - 37.4 °F 100% 29.80 in 0.2 mi Calm Calm - N/A Fog Fog
2:15 AM 35.6 °F 31.7 °F 35.6 °F 100% 29.80 in 0.2 mi West 4.6 mph - N/A Fog Fog
2:35 AM 35.6 °F - 35.6 °F 100% 29.79 in 0.2 mi Calm Calm - N/A Fog Fog
2:55 AM 35.6 °F 29.9 °F 35.6 °F 100% 29.79 in 0.2 mi NW 6.9 mph - N/A Fog Fog
3:15 AM 37.4 °F 33.8 °F 37.4 °F 100% 29.79 in 10.0 mi WNW 4.6 mph - N/A   Scattered Clouds
3:35 AM 39.2 °F 35.9 °F 39.2 °F 100% 29.79 in 10.0 mi SSW 4.6 mph - N/A   Clear
3:55 AM 37.4 °F - 37.4 °F 100% 29.79 in 5.0 mi Calm Calm - N/A   Clear
4:15 AM 35.6 °F 31.7 °F 35.6 °F 100% 29.79 in 1.0 mi South 4.6 mph - N/A   Mist
4:35 AM 37.4 °F - 37.4 °F 100% 29.79 in 2.0 mi Calm Calm - N/A   Clear
4:55 AM 39.2 °F 35.0 °F 39.2 °F 100% 29.78 in 10.0 mi SE 5.8 mph - N/A   Clear
5:15 AM 41.0 °F 38.0 °F 39.2 °F 93% 29.77 in 10.0 mi South 4.6 mph - N/A   Clear
5:35 AM 41.0 °F 36.4 °F 39.2 °F 93% 29.78 in 10.0 mi West 6.9 mph - N/A   Clear
6:15 AM 41.0 °F 38.0 °F 39.2 °F 93% 29.77 in 10.0 mi SSE 4.6 mph - N/A   Scattered Clouds
6:35 AM 37.4 °F - 37.4 °F 100% 29.78 in 10.0 mi Calm Calm - N/A   Scattered Clouds
6:45 AM 39.2 °F - 39.2 °F 100% 29.78 in 10.0 mi Calm Calm - N/A   Scattered Clouds
7:50 AM 44.6 °F 40.7 °F 39.2 °F 81% 29.79 in 10.0 mi SSW 6.9 mph - N/A   Clear
8:50 AM 48.2 °F - 41.0 °F 76% 29.78 in 10.0 mi SSW 8.1 mph - N/A   Clear
9:50 AM 53.6 °F - 42.8 °F 67% 29.78 in 10.0 mi SW 6.9 mph - N/A   Clear
10:50 AM 57.2 °F - 44.6 °F 63% 29.78 in 10.0 mi West 16.1 mph 31.1 mph N/A   Clear
11:50 AM 59.0 °F - 42.8 °F 55% 29.78 in 10.0 mi West 19.6 mph 26.5 mph N/A   Clear
12:50 PM 60.8 °F - 42.8 °F 52% 29.78 in 10.0 mi West 16.1 mph 20.7 mph N/A   Mostly Cloudy
1:58 PM 55.4 °F - 39.2 °F 54% 29.81 in 10.0 mi NW 21.9 mph 27.6 mph N/A   Mostly Cloudy
2:59 PM 53.6 °F - 35.6 °F 51% 29.83 in 10.0 mi NW 15.0 mph 21.9 mph N/A   Overcast
3:45 PM 51.8 °F - 33.8 °F 50% 29.83 in 10.0 mi WNW 17.3 mph 23.0 mph N/A   Mostly Cloudy
4:55 PM 51.8 °F - 32.0 °F 47% 29.86 in 10.0 mi NW 19.6 mph 26.5 mph N/A   Scattered Clouds
5:45 PM 48.2 °F - 30.2 °F 50% 29.89 in 10.0 mi NW 16.1 mph 26.5 mph N/A   Scattered Clouds
6:45 PM 48.2 °F - 26.6 °F 43% 29.92 in 10.0 mi WNW 16.1 mph 24.2 mph N/A   Scattered Clouds
7:55 PM 42.8 °F 37.5 °F 24.8 °F 49% 29.94 in 10.0 mi NW 9.2 mph - N/A   Scattered Clouds
8:55 PM 39.2 °F 35.0 °F 23.0 °F 52% 29.96 in 10.0 mi NW 5.8 mph - N/A   Scattered Clouds
9:15 PM 37.4 °F 32.1 °F 23.0 °F 56% 29.97 in 10.0 mi NW 6.9 mph - N/A   Clear
9:35 PM 39.2 °F 34.2 °F 21.2 °F 49% 29.98 in 10.0 mi NW 6.9 mph - N/A   Clear
9:55 PM 37.4 °F 32.1 °F 21.2 °F 52% 29.99 in 10.0 mi NNW 6.9 mph - N/A   Clear
10:15 PM 35.6 °F 31.7 °F 21.2 °F 56% 29.99 in 10.0 mi NNW 4.6 mph - N/A   Clear
10:35 PM 35.6 °F 31.7 °F 23.0 °F 60% 30.00 in 10.0 mi NNW 4.6 mph - N/A   Clear
10:55 PM 35.6 °F 30.7 °F 21.2 °F 56% 30.01 in 10.0 mi NNW 5.8 mph - N/A   Clear
11:15 PM 35.6 °F 29.2 °F 19.4 °F 52% 30.01 in 10.0 mi NW 8.1 mph - N/A   Clear
11:35 PM 37.4 °F 32.1 °F 19.4 °F 48% 30.02 in 10.0 mi NNW 6.9 mph - N/A   Clear
11:55 PM 33.8 °F 30.8 °F 19.4 °F 56% 30.02 in 10.0 mi NW 3.5 mph - N/A   Clear